• In Czech Republic
  • List of Countries
  • For 7 days
  • Water Temperature
  • Satellite Maps
  • Weather Map
  • Weather Widgets
  • user-avatar
    Login

    Hourly Weather Saint-Pierre i Miquelon

    Today, 24 October, Tuesday

    Time Temperature Precipitation Wind Pressure Humidity
    00:00 +6°C° 0 mm 5 mps 769 mmHg 86%
    01:00 +6°C° 0 mm 4 mps 768 mmHg 86%
    02:00 +6°C° 0 mm 4 mps 768 mmHg 86%
    03:00 +6°C° 0 mm 4 mps 768 mmHg 87%
    04:00 +6°C° 0 mm 4 mps 767 mmHg 88%
    05:00 +6°C° 0 mm 4 mps 767 mmHg 89%
    06:00 +7°C° 0 mm 4 mps 767 mmHg 89%
    07:00 +8°C° 0 mm 4 mps 767 mmHg 89%
    08:00 +10°C° 0 mm 4 mps 767 mmHg 89%
    09:00 +11°C° 0 mm 4 mps 767 mmHg 85%
    10:00 +12°C° 0 mm 5 mps 767 mmHg 80%
    11:00 +13°C° 0 mm 5 mps 767 mmHg 76%
    12:00 +13°C° 0 mm 5 mps 767 mmHg 78%
    13:00 +13°C° 0 mm 6 mps 766 mmHg 81%
    14:00 +13°C° 0 mm 6 mps 766 mmHg 83%
    15:00 +11°C° 0 mm 7 mps 766 mmHg 87%
    16:00 +10°C° 0 mm 7 mps 767 mmHg 92%
    17:00 +9°C° 0 mm 7 mps 767 mmHg 96%
    18:00 +9°C° 0 mm 7 mps 767 mmHg 96%
    19:00 +9°C° 0 mm 7 mps 767 mmHg 96%
    20:00 +10°C° 0 mm 7 mps 767 mmHg 96%
    21:00 +9°C° 0 mm 6 mps 767 mmHg 95%
    22:00 +9°C° 0 mm 6 mps 768 mmHg 95%
    23:00 +9°C° 0 mm 5 mps 768 mmHg 94%

    Tomorrow, 25 October, Wednesday

    Time Temperature Precipitation Wind Pressure Humidity
    00:00 +9°C° 0 mm 5 mps 768 mmHg 94%
    01:00 +9°C° 0 mm 5 mps 768 mmHg 93%
    02:00 +9°C° 0 mm 5 mps 768 mmHg 92%
    03:00 +9°C° 0 mm 5 mps 768 mmHg 92%
    04:00 +8°C° 0 mm 4 mps 768 mmHg 92%
    05:00 +8°C° 0 mm 4 mps 768 mmHg 93%
    06:00 +10°C° 0 mm 3 mps 769 mmHg 91%
    07:00 +11°C° 0 mm 3 mps 769 mmHg 90%
    08:00 +13°C° 0 mm 2 mps 769 mmHg 89%
    09:00 +14°C° 0 mm 2 mps 769 mmHg 88%
    10:00 +15°C° 0 mm 2 mps 769 mmHg 86%
    11:00 +16°C° 0 mm 3 mps 769 mmHg 84%
    12:00 +17°C° 0 mm 3 mps 769 mmHg 83%
    13:00 +17°C° 0 mm 3 mps 769 mmHg 81%
    14:00 +18°C° 0 mm 3 mps 769 mmHg 80%
    15:00 +16°C° 0 mm 3 mps 769 mmHg 84%
    16:00 +14°C° 0 mm 3 mps 770 mmHg 89%
    17:00 +13°C° 0 mm 3 mps 770 mmHg 94%
    18:00 +13°C° 0 mm 3 mps 770 mmHg 94%
    19:00 +12°C° 0 mm 3 mps 771 mmHg 95%
    20:00 +12°C° 0 mm 3 mps 771 mmHg 96%
    21:00 +12°C° 0 mm 3 mps 771 mmHg 96%
    22:00 +12°C° 0 mm 3 mps 771 mmHg 97%
    23:00 +12°C° 0 mm 3 mps 771 mmHg 97%

    Day after tomorrow, 26 October, Thursday

    Time Temperature Precipitation Wind Pressure Humidity
    00:00 +12°C° 0 mm 3 mps 771 mmHg 97%
    01:00 +12°C° 0 mm 3 mps 771 mmHg 96%
    02:00 +12°C° 0 mm 3 mps 771 mmHg 96%
    03:00 +12°C° 0 mm 3 mps 771 mmHg 96%
    04:00 +12°C° 0 mm 3 mps 771 mmHg 96%
    05:00 +12°C° 0 mm 3 mps 771 mmHg 95%
    06:00 +12°C° 0 mm 3 mps 772 mmHg 94%
    07:00 +13°C° 0 mm 3 mps 772 mmHg 93%
    08:00 +14°C° 0 mm 4 mps 772 mmHg 91%
    09:00 +15°C° 0 mm 4 mps 772 mmHg 87%
    10:00 +17°C° 0 mm 4 mps 772 mmHg 83%
    11:00 +18°C° 0 mm 4 mps 772 mmHg 79%
    12:00 +18°C° 0 mm 4 mps 772 mmHg 79%
    13:00 +18°C° 0 mm 4 mps 771 mmHg 79%
    14:00 +18°C° 0 mm 4 mps 771 mmHg 79%
    15:00 +17°C° 0 mm 4 mps 771 mmHg 84%
    16:00 +14°C° 0 mm 5 mps 771 mmHg 90%
    17:00 +13°C° 0 mm 5 mps 771 mmHg 96%
    18:00 +13°C° 0 mm 5 mps 770 mmHg 96%
    19:00 +13°C° 0 mm 6 mps 770 mmHg 97%
    20:00 +11°C° 0 mm 6 mps 770 mmHg 97%
    21:00 +11°C° 0 mm 6 mps 770 mmHg 97%
    22:00 +11°C° 0 mm 6 mps 769 mmHg 97%
    23:00 +10°C° 0 mm 7 mps 769 mmHg 97%

    27 October, Friday

    Time Temperature Precipitation Wind Pressure Humidity
    00:00 +10°C° 0 mm 7 mps 769 mmHg 95%
    01:00 +10°C° 0 mm 7 mps 768 mmHg 94%
    02:00 +9°C° 0 mm 6 mps 768 mmHg 92%
    03:00 +9°C° 0 mm 6 mps 768 mmHg 92%
    04:00 +9°C° 0 mm 6 mps 767 mmHg 92%
    05:00 +9°C° 0 mm 6 mps 767 mmHg 92%
    06:00 +9°C° 0 mm 7 mps 767 mmHg 91%
    07:00 +10°C° 0 mm 7 mps 767 mmHg 90%
    08:00 +10°C° 0 mm 8 mps 767 mmHg 89%
    09:00 +11°C° 0 mm 7 mps 767 mmHg 87%
    10:00 +12°C° 0 mm 7 mps 766 mmHg 84%
    11:00 +14°C° 0 mm 6 mps 766 mmHg 82%
    12:00 +14°C° 0 mm 6 mps 766 mmHg 83%
    13:00 +14°C° 0 mm 6 mps 765 mmHg 84%
    14:00 +14°C° 0 mm 6 mps 765 mmHg 85%
    15:00 +13°C° 0.2 mm 6 mps 765 mmHg 88%
    16:00 +11°C° 0.2 mm 6 mps 765 mmHg 91%
    17:00 +10°C° 0.2 mm 6 mps 765 mmHg 94%
    18:00 +10°C° 0.2 mm 6 mps 765 mmHg 94%
    19:00 +10°C° 0.2 mm 5 mps 765 mmHg 93%
    20:00 +12°C° 0.2 mm 5 mps 765 mmHg 93%
    21:00 +10°C° 0.2 mm 5 mps 765 mmHg 93%
    22:00 +11°C° 0.2 mm 4 mps 765 mmHg 93%
    23:00 +11°C° 0.2 mm 4 mps 765 mmHg 94%

    28 October, Saturday

    Time Temperature Precipitation Wind Pressure Humidity
    00:00 +11°C° 0.2 mm 4 mps 765 mmHg 94%
    01:00 +11°C° 0.2 mm 4 mps 765 mmHg 94%
    02:00 +11°C° 0.2 mm 4 mps 765 mmHg 94%
    03:00 +11°C° 0.3 mm 4 mps 765 mmHg 93%
    04:00 +11°C° 0.3 mm 4 mps 765 mmHg 93%
    05:00 +9°C° 0.3 mm 5 mps 766 mmHg 93%
    06:00 +10°C° 0.2 mm 4 mps 766 mmHg 92%
    07:00 +10°C° 0.2 mm 4 mps 766 mmHg 91%
    08:00 +10°C° 0.2 mm 3 mps 767 mmHg 91%
    09:00 +11°C° 0.1 mm 3 mps 767 mmHg 88%
    10:00 +11°C° 0.1 mm 3 mps 767 mmHg 86%
    11:00 +13°C° 0.1 mm 2 mps 767 mmHg 84%
    12:00 +14°C° 0 mm 2 mps 767 mmHg 83%
    13:00 +15°C° 0 mm 2 mps 767 mmHg 83%
    14:00 +15°C° 0 mm 2 mps 767 mmHg 82%
    15:00 +14°C° 0 mm 3 mps 767 mmHg 85%
    16:00 +13°C° 0 mm 4 mps 767 mmHg 87%
    17:00 +12°C° 0 mm 5 mps 768 mmHg 90%
    18:00 +10°C° 0 mm 5 mps 768 mmHg 89%
    19:00 +10°C° 0 mm 5 mps 768 mmHg 87%
    20:00 +10°C° 0 mm 5 mps 768 mmHg 86%
    21:00 +9°C° 0 mm 5 mps 768 mmHg 86%
    22:00 +8°C° 0 mm 5 mps 768 mmHg 87%
    23:00 +7°C° 0 mm 6 mps 768 mmHg 87%

    29 October, Sunday

    Time Temperature Precipitation Wind Pressure Humidity
    00:00 +7°C° 0 mm 6 mps 768 mmHg 86%
    01:00 +5°C° 0 mm 6 mps 769 mmHg 86%
    02:00 +4°C° 0 mm 6 mps 769 mmHg 85%
    03:00 +4°C° 0 mm 6 mps 769 mmHg 85%
    04:00 +3°C° 0 mm 5 mps 769 mmHg 85%
    05:00 +3°C° 0 mm 5 mps 769 mmHg 85%
    06:00 +3°C° 0 mm 5 mps 769 mmHg 84%
    07:00 +3°C° 0 mm 5 mps 769 mmHg 84%
    08:00 +3°C° 0 mm 5 mps 769 mmHg 83%
    09:00 +5°C° 0 mm 5 mps 769 mmHg 78%
    10:00 +6°C° 0 mm 4 mps 769 mmHg 74%
    11:00 +7°C° 0 mm 4 mps 769 mmHg 69%
    12:00 +9°C° 0 mm 3 mps 769 mmHg 67%
    13:00 +9°C° 0 mm 3 mps 769 mmHg 65%
    14:00 +10°C° 0 mm 2 mps 769 mmHg 63%
    15:00 +9°C° 0 mm 2 mps 769 mmHg 67%
    16:00 +9°C° 0 mm 1 mps 769 mmHg 72%
    17:00 +8°C° 0 mm 1 mps 769 mmHg 76%
    18:00 +8°C° 0 mm 1 mps 769 mmHg 78%
    19:00 +7°C° 0 mm 2 mps 770 mmHg 80%
    20:00 +6°C° 0 mm 2 mps 770 mmHg 82%
    21:00 +6°C° 0 mm 2 mps 770 mmHg 84%
    22:00 +6°C° 0 mm 2 mps 769 mmHg 85%
    23:00 +6°C° 0 mm 2 mps 769 mmHg 86%

    30 October, Monday

    Time Temperature Precipitation Wind Pressure Humidity
    00:00 +6°C° 0 mm 1 mps 769 mmHg 87%
    01:00 +6°C° 0 mm 1 mps 769 mmHg 87%
    02:00 +6°C° 0 mm 1 mps 770 mmHg 88%
    03:00 +6°C° 0 mm 1 mps 770 mmHg 88%
    04:00 +5°C° 0 mm 1 mps 770 mmHg 89%
    05:00 +5°C° 0 mm 1 mps 770 mmHg 89%
    06:00 +5°C° 0 mm 2 mps 771 mmHg 86%
    07:00 +6°C° 0 mm 2 mps 771 mmHg 83%
    08:00 +7°C° 0 mm 3 mps 771 mmHg 80%
    09:00 +8°C° 0 mm 3 mps 771 mmHg 76%
    10:00 +8°C° 0 mm 4 mps 771 mmHg 71%
    11:00 +10°C° 0 mm 4 mps 770 mmHg 67%
    12:00 +10°C° 0 mm 4 mps 770 mmHg 68%
    13:00 +10°C° 0 mm 4 mps 770 mmHg 68%
    14:00 +10°C° 0 mm 4 mps 770 mmHg 69%
    15:00 +7°C° 0 mm 4 mps 770 mmHg 75%
    16:00 +6°C° 0 mm 5 mps 770 mmHg 80%
    17:00 +5°C° 0 mm 5 mps 770 mmHg 86%
    18:00 +4°C° 0 mm 6 mps 770 mmHg 87%
    19:00 +4°C° 0 mm 7 mps 770 mmHg 88%
    20:00 +4°C° 0 mm 7 mps 770 mmHg 89%
    21:00 +5°C° 0 mm 8 mps 770 mmHg 88%
    22:00 +5°C° 0 mm 8 mps 769 mmHg 88%
    23:00 +5°C° 0 mm 9 mps 769 mmHg 87%
    Show more